BAW126 EPWA-EGKK

Flight info

Callsign BAW126
Flight time 2h 13m
Altitude 40000
Route LOLSI7G LOLSI T174 INDIG L980 SUBIX DCT HLZ L980 RKN DCT NIGUG DCT ODVIL DCT GALSO Q63 ARREK Y4 TEBRA TEBRA2G
Aircraft B772/H-SDE2E3FGHIJ5LORVWXY/LB1D1

Departure

Time 2026-05-07 23:42
Airport Warsaw Chopin Airport (EPWA)

Arrival

Time 2026-05-08 01:56
Airport London Gatwick Airport (EGKK)
Time Latitude Longitude Altitude Speed Heading
2026-05-07 22:55 52.17205 20.96939 354 ft 0 kts 61°
2026-05-07 23:32 52.17209 20.96952 364 ft 0 kts 61°
2026-05-07 23:36 52.17211 20.96956 364 ft 0 kts 60°
2026-05-07 23:39 52.14961 20.98122 337 ft 0 kts 332°
2026-05-07 23:40 52.14962 20.98121 336 ft 0 kts 332°
2026-05-07 23:42 52.15040 20.98051 336 ft 19 kts 332°
2026-05-07 23:42 52.15424 20.97722 347 ft 124 kts 333°
2026-05-07 23:42 52.16468 20.96803 883 ft 194 kts 333°
2026-05-07 23:42 52.17712 20.95723 2417 ft 220 kts 333°
2026-05-07 23:43 52.19114 20.94516 3862 ft 228 kts 330°
2026-05-07 23:43 52.20512 20.93275 4978 ft 229 kts 329°
2026-05-07 23:43 52.21874 20.91946 5799 ft 234 kts 318°
2026-05-07 23:43 52.22773 20.89736 6598 ft 240 kts 285°
2026-05-07 23:44 52.22812 20.87048 7466 ft 245 kts 258°
2026-05-07 23:44 52.22307 20.84367 8380 ft 249 kts 250°
2026-05-07 23:44 52.21688 20.81697 9327 ft 253 kts 249°
2026-05-07 23:44 52.21056 20.78980 10267 ft 257 kts 249°
2026-05-07 23:45 52.20431 20.76233 11183 ft 258 kts 249°
2026-05-07 23:45 52.19813 20.73475 12150 ft 260 kts 249°
2026-05-07 23:45 52.19181 20.70636 12958 ft 275 kts 249°
2026-05-07 23:45 52.18507 20.67528 13409 ft 307 kts 251°
2026-05-07 23:46 52.17883 20.64189 14423 ft 316 kts 252°
2026-05-07 23:46 52.17252 20.60706 15588 ft 322 kts 252°
2026-05-07 23:46 52.16606 20.57197 16673 ft 330 kts 251°
2026-05-07 23:46 52.15933 20.53590 17866 ft 334 kts 251°
2026-05-07 23:47 52.15345 20.50044 18894 ft 340 kts 258°
2026-05-07 23:47 52.15305 20.46158 19740 ft 348 kts 270°
2026-05-07 23:47 52.15490 20.42160 20611 ft 357 kts 270°
2026-05-07 23:47 52.15694 20.38097 21618 ft 362 kts 270°
2026-05-07 23:48 52.15889 20.34053 22637 ft 365 kts 269°
2026-05-07 23:48 52.16074 20.29887 23626 ft 371 kts 268°
2026-05-07 23:48 52.16251 20.25659 24441 ft 377 kts 268°
2026-05-07 23:48 52.16426 20.21374 25258 ft 382 kts 267°
2026-05-07 23:49 52.16599 20.17028 26091 ft 387 kts 267°
2026-05-07 23:49 52.16772 20.12615 26911 ft 392 kts 266°
2026-05-07 23:49 52.16945 20.08154 27732 ft 397 kts 266°
2026-05-07 23:49 52.17120 20.03620 28496 ft 405 kts 265°
2026-05-07 23:50 52.17286 19.99273 29153 ft 412 kts 265°
2026-05-07 23:50 52.17464 19.94583 29889 ft 417 kts 265°
2026-05-07 23:50 52.17639 19.89835 30552 ft 422 kts 265°
2026-05-07 23:50 52.17708 19.85070 31256 ft 416 kts 258°
2026-05-07 23:51 52.17371 19.80417 31954 ft 412 kts 253°
2026-05-07 23:51 52.16903 19.75857 32589 ft 414 kts 253°
2026-05-07 23:51 52.16410 19.71231 33200 ft 417 kts 253°
2026-05-07 23:51 52.15932 19.66553 33774 ft 420 kts 254°
2026-05-07 23:52 52.15476 19.61840 34271 ft 424 kts 255°
2026-05-07 23:52 52.15032 19.57059 34652 ft 430 kts 255°
2026-05-07 23:52 52.14590 19.52201 35060 ft 434 kts 256°
2026-05-07 23:52 52.14154 19.47368 35536 ft 436 kts 256°
2026-05-07 23:53 52.13711 19.42473 36070 ft 437 kts 257°
2026-05-07 23:53 52.13260 19.37573 36554 ft 439 kts 257°
2026-05-07 23:53 52.12802 19.32644 36987 ft 442 kts 257°
2026-05-07 23:53 52.12337 19.27696 37500 ft 443 kts 258°
2026-05-07 23:54 52.11869 19.22752 38039 ft 443 kts 258°
2026-05-07 23:54 52.11399 19.17795 38562 ft 444 kts 258°
2026-05-07 23:54 52.10929 19.12859 38990 ft 445 kts 259°
2026-05-07 23:54 52.10456 19.07890 39419 ft 444 kts 259°
2026-05-07 23:55 52.09981 19.02928 39865 ft 444 kts 259°
2026-05-07 23:55 52.09532 18.98258 40108 ft 447 kts 259°
2026-05-07 23:55 52.08563 18.88225 40085 ft 446 kts 259°
2026-05-07 23:56 52.07607 18.78403 40085 ft 441 kts 259°
2026-05-07 23:56 52.06641 18.68584 40098 ft 441 kts 259°
2026-05-07 23:57 52.05662 18.58726 40095 ft 442 kts 259°
2026-05-07 23:57 52.04676 18.48877 40102 ft 443 kts 259°
2026-05-07 23:58 52.03684 18.39045 40107 ft 444 kts 259°
2026-05-07 23:58 52.02676 18.29136 40103 ft 445 kts 259°
2026-05-07 23:59 52.01661 18.19205 40102 ft 446 kts 259°
2026-05-07 23:59 52.00621 18.09275 40105 ft 446 kts 258°
2026-05-08 00:00 52.00137 17.99558 40112 ft 448 kts 268°
2026-05-08 00:00 52.00726 17.89497 40108 ft 450 kts 277°
2026-05-08 00:01 52.01872 17.79559 40119 ft 451 kts 278°
2026-05-08 00:01 52.02430 17.74552 39273 ft 449 kts 279°
2026-05-08 00:01 52.02968 17.69616 39562 ft 436 kts 279°
2026-05-08 00:02 52.03488 17.64783 40468 ft 436 kts 277°
2026-05-08 00:02 52.04011 17.59887 40324 ft 447 kts 277°
2026-05-08 00:02 52.05093 17.49820 40125 ft 454 kts 278°
2026-05-08 00:03 52.06169 17.39773 40133 ft 450 kts 277°
2026-05-08 00:03 52.07214 17.29828 40119 ft 447 kts 277°
2026-05-08 00:04 52.08245 17.19943 40116 ft 446 kts 277°
2026-05-08 00:04 52.09275 17.09986 40124 ft 446 kts 277°
2026-05-08 00:05 52.10286 17.00054 40125 ft 447 kts 277°
2026-05-08 00:05 52.11271 16.90380 40132 ft 449 kts 277°
2026-05-08 00:06 52.12288 16.80352 40127 ft 451 kts 277°
2026-05-08 00:06 52.13305 16.70327 40116 ft 452 kts 278°
2026-05-08 00:07 52.14552 16.60273 40120 ft 453 kts 280°
2026-05-08 00:07 52.15852 16.50235 40120 ft 453 kts 279°
2026-05-08 00:08 52.17109 16.40194 40124 ft 452 kts 279°
2026-05-08 00:08 52.18133 16.31866 40121 ft 452 kts 279°
2026-05-08 00:09 52.19359 16.21822 40123 ft 451 kts 279°
2026-05-08 00:09 52.20574 16.11784 40122 ft 451 kts 279°
2026-05-08 00:10 52.21777 16.01793 40122 ft 451 kts 279°
2026-05-08 00:10 52.22936 15.92119 40128 ft 451 kts 279°
2026-05-08 00:11 52.24123 15.82082 40128 ft 451 kts 279°
2026-05-08 00:11 52.25287 15.72119 40123 ft 451 kts 279°
2026-05-08 00:12 52.26460 15.62058 40124 ft 451 kts 279°
2026-05-08 00:12 52.27621 15.51986 40127 ft 451 kts 278°
2026-05-08 00:13 52.28757 15.42013 40138 ft 451 kts 278°
2026-05-08 00:13 52.29898 15.31945 40129 ft 452 kts 278°
2026-05-08 00:14 52.31029 15.21908 40128 ft 452 kts 278°
2026-05-08 00:14 52.32162 15.11795 40129 ft 452 kts 278°
2026-05-08 00:15 52.33282 15.01680 40133 ft 452 kts 278°
2026-05-08 00:15 52.34359 14.91889 40133 ft 452 kts 278°
2026-05-08 00:16 52.35458 14.81835 40131 ft 451 kts 278°
2026-05-08 00:16 52.36556 14.71726 40135 ft 451 kts 278°
2026-05-08 00:17 52.37640 14.61614 40137 ft 451 kts 277°
2026-05-08 00:17 52.38135 14.51421 40130 ft 449 kts 270°
2026-05-08 00:18 52.38202 14.41214 40136 ft 449 kts 269°
2026-05-08 00:18 52.38257 14.31046 40137 ft 449 kts 269°
2026-05-08 00:19 52.38331 14.20832 40138 ft 449 kts 269°
2026-05-08 00:19 52.38412 14.10608 40135 ft 449 kts 269°
2026-05-08 00:20 52.38488 14.00390 40142 ft 449 kts 269°
2026-05-08 00:20 52.38552 13.90449 40132 ft 449 kts 269°
2026-05-08 00:21 52.38609 13.80210 40134 ft 449 kts 269°
2026-05-08 00:21 52.38656 13.70054 40134 ft 449 kts 269°
2026-05-08 00:22 52.38695 13.59809 40134 ft 449 kts 269°
2026-05-08 00:22 52.38725 13.49593 40136 ft 449 kts 269°
2026-05-08 00:23 52.38746 13.39321 40131 ft 450 kts 269°
2026-05-08 00:23 52.38758 13.29083 40133 ft 450 kts 269°
2026-05-08 00:24 52.38773 13.18848 40135 ft 450 kts 269°
2026-05-08 00:24 52.38774 13.08655 40142 ft 450 kts 269°
2026-05-08 00:25 52.38760 12.98703 40155 ft 450 kts 269°
2026-05-08 00:25 52.38736 12.88456 40147 ft 450 kts 269°
2026-05-08 00:26 52.38704 12.78213 40143 ft 450 kts 269°
2026-05-08 00:26 52.38663 12.67961 40145 ft 450 kts 269°
2026-05-08 00:27 52.38614 12.57775 40144 ft 450 kts 269°
2026-05-08 00:27 52.38556 12.47520 40150 ft 450 kts 269°
2026-05-08 00:28 52.38489 12.37278 40147 ft 450 kts 268°
2026-05-08 00:28 52.38413 12.27034 40147 ft 450 kts 268°
2026-05-08 00:29 52.38328 12.16768 40147 ft 450 kts 268°
2026-05-08 00:29 52.38235 12.06586 40145 ft 450 kts 268°
2026-05-08 00:30 52.38136 11.96653 40157 ft 450 kts 268°
2026-05-08 00:30 52.38024 11.86393 40151 ft 450 kts 268°
2026-05-08 00:31 52.37904 11.76146 40149 ft 450 kts 268°
2026-05-08 00:31 52.37776 11.65901 40147 ft 450 kts 268°
2026-05-08 00:32 52.37639 11.55732 40147 ft 450 kts 268°
2026-05-08 00:32 52.37493 11.45496 40153 ft 450 kts 268°
2026-05-08 00:33 52.37338 11.35258 40147 ft 450 kts 268°
2026-05-08 00:33 52.37174 11.25024 40147 ft 449 kts 268°
2026-05-08 00:34 52.37001 11.14792 40146 ft 449 kts 268°
2026-05-08 00:34 52.36821 11.04627 40144 ft 449 kts 268°
2026-05-08 00:35 52.36638 10.94729 40141 ft 449 kts 268°
2026-05-08 00:35 52.36441 10.84523 40136 ft 449 kts 267°
2026-05-08 00:36 52.35809 10.74417 40134 ft 448 kts 258°
2026-05-08 00:36 52.34580 10.64471 40130 ft 448 kts 258°
2026-05-08 00:37 52.33331 10.54532 40131 ft 448 kts 258°
2026-05-08 00:38 52.31483 10.39549 40140 ft 448 kts 258°
2026-05-08 00:38 52.30253 10.29571 40141 ft 448 kts 258°
2026-05-08 00:39 52.29013 10.19599 40146 ft 447 kts 258°
2026-05-08 00:39 52.27766 10.09646 40146 ft 447 kts 258°
2026-05-08 00:40 52.26532 9.99851 40149 ft 447 kts 258°
2026-05-08 00:40 52.25312 9.90072 40160 ft 447 kts 260°
2026-05-08 00:41 52.24781 9.79975 40153 ft 447 kts 267°
2026-05-08 00:41 52.24560 9.69843 40150 ft 447 kts 267°
2026-05-08 00:42 52.24314 9.59780 40151 ft 447 kts 267°
2026-05-08 00:42 52.24031 9.49636 40136 ft 447 kts 266°
2026-05-08 00:43 52.23737 9.39517 40132 ft 447 kts 266°
2026-05-08 00:43 52.23436 9.29385 40130 ft 447 kts 266°
2026-05-08 00:44 52.23127 9.19249 40131 ft 447 kts 266°
2026-05-08 00:44 52.22815 9.09118 40132 ft 447 kts 266°
2026-05-08 00:45 52.22506 8.99341 40134 ft 447 kts 266°
2026-05-08 00:45 52.22177 8.89211 40136 ft 447 kts 266°
2026-05-08 00:46 52.21840 8.79098 40132 ft 446 kts 266°
2026-05-08 00:46 52.21495 8.68995 40127 ft 446 kts 266°
2026-05-08 00:47 52.21141 8.58899 40123 ft 446 kts 266°
2026-05-08 00:47 52.20781 8.48823 40128 ft 445 kts 266°
2026-05-08 00:48 52.20407 8.38744 40136 ft 445 kts 265°
2026-05-08 00:48 52.20019 8.28677 40129 ft 445 kts 265°
2026-05-08 00:49 52.19646 8.18652 40131 ft 445 kts 266°
2026-05-08 00:49 52.19280 8.08659 40129 ft 445 kts 266°
2026-05-08 00:50 52.18913 7.98908 40131 ft 445 kts 265°
2026-05-08 00:50 52.18524 7.88839 40136 ft 445 kts 265°
2026-05-08 00:51 52.18126 7.78764 40129 ft 445 kts 265°
2026-05-08 00:51 52.17721 7.68710 40130 ft 444 kts 265°
2026-05-08 00:52 52.17287 7.58728 40130 ft 444 kts 265°
2026-05-08 00:52 52.16821 7.48693 40118 ft 444 kts 265°
2026-05-08 00:53 52.16351 7.38674 40124 ft 443 kts 265°
2026-05-08 00:53 52.15876 7.28651 40122 ft 443 kts 265°
2026-05-08 00:54 52.15477 7.20334 40119 ft 443 kts 265°
2026-05-08 00:54 52.14988 7.10315 40120 ft 443 kts 264°
2026-05-08 00:55 52.14421 6.99038 40114 ft 443 kts 264°
2026-05-08 00:55 52.13995 6.90656 40114 ft 443 kts 264°
2026-05-08 00:56 52.13510 6.80715 40118 ft 443 kts 265°
2026-05-08 00:56 52.13034 6.70741 40116 ft 443 kts 264°
2026-05-08 00:57 52.12478 6.60750 40112 ft 443 kts 264°
2026-05-08 00:57 52.11908 6.50769 40111 ft 442 kts 264°
2026-05-08 00:58 52.11338 6.40807 40108 ft 442 kts 264°
2026-05-08 00:58 52.10764 6.30844 40105 ft 442 kts 264°
2026-05-08 00:59 52.10183 6.20891 40103 ft 442 kts 264°
2026-05-08 00:59 52.09593 6.10939 40103 ft 441 kts 264°
2026-05-08 01:00 52.08996 6.01010 40100 ft 441 kts 263°
2026-05-08 01:00 52.08408 5.91362 40104 ft 441 kts 263°
2026-05-08 01:01 52.07797 5.81462 40108 ft 441 kts 263°
2026-05-08 01:01 52.07178 5.71599 40102 ft 441 kts 263°
2026-05-08 01:02 52.06550 5.61710 40098 ft 441 kts 263°
2026-05-08 01:02 52.05915 5.51830 40098 ft 441 kts 263°
2026-05-08 01:03 52.05273 5.41980 40098 ft 441 kts 263°
2026-05-08 01:03 52.04620 5.32074 40106 ft 441 kts 263°
2026-05-08 01:04 52.03621 5.22335 40106 ft 439 kts 257°
2026-05-08 01:04 52.02255 5.12665 40102 ft 439 kts 256°
2026-05-08 01:05 52.00874 5.02987 40102 ft 439 kts 256°
2026-05-08 01:05 51.99546 4.93593 40101 ft 439 kts 256°
2026-05-08 01:06 51.98183 4.83937 40100 ft 439 kts 256°
2026-05-08 01:06 51.96811 4.74264 40098 ft 440 kts 256°
2026-05-08 01:07 51.95440 4.64658 40103 ft 440 kts 256°
2026-05-08 01:07 51.94056 4.55027 40102 ft 440 kts 256°
2026-05-08 01:08 51.92659 4.45374 40104 ft 440 kts 256°
2026-05-08 01:08 51.91256 4.35729 40103 ft 440 kts 256°
2026-05-08 01:09 51.89844 4.26092 40103 ft 440 kts 256°
2026-05-08 01:09 51.88423 4.16449 40100 ft 440 kts 256°
2026-05-08 01:10 51.86996 4.06822 40102 ft 440 kts 256°
2026-05-08 01:10 51.85622 3.97601 40101 ft 440 kts 256°
2026-05-08 01:11 51.84185 3.88016 40108 ft 439 kts 256°
2026-05-08 01:11 51.82734 3.78417 40097 ft 439 kts 255°
2026-05-08 01:12 51.81273 3.68820 40094 ft 439 kts 255°
2026-05-08 01:12 51.79807 3.59241 40096 ft 439 kts 255°
2026-05-08 01:13 51.78331 3.49645 39870 ft 443 kts 255°
2026-05-08 01:13 51.77580 3.44785 39296 ft 447 kts 255°
2026-05-08 01:13 51.76826 3.39918 38699 ft 447 kts 255°
2026-05-08 01:13 51.76069 3.35045 38009 ft 445 kts 255°
2026-05-08 01:14 51.75319 3.30223 37510 ft 440 kts 255°
2026-05-08 01:14 51.74577 3.25472 37033 ft 435 kts 255°
2026-05-08 01:14 51.73855 3.20865 36506 ft 416 kts 255°
2026-05-08 01:14 51.73217 3.16483 36085 ft 388 kts 258°
2026-05-08 01:15 51.72822 3.12308 35685 ft 365 kts 261°
2026-05-08 01:15 51.72488 3.08321 35274 ft 356 kts 261°
2026-05-08 01:15 51.72157 3.04355 34870 ft 361 kts 261°
2026-05-08 01:15 51.71802 3.00177 34472 ft 390 kts 261°
2026-05-08 01:16 51.71443 2.96004 33985 ft 403 kts 261°
2026-05-08 01:16 51.71057 2.91542 33422 ft 401 kts 261°
2026-05-08 01:16 51.70670 2.87103 32912 ft 397 kts 261°
2026-05-08 01:16 51.70284 2.82705 32436 ft 393 kts 261°
2026-05-08 01:17 51.69901 2.78368 31953 ft 390 kts 261°
2026-05-08 01:17 51.69518 2.74044 31474 ft 387 kts 261°
2026-05-08 01:17 51.69143 2.69835 31018 ft 384 kts 261°
2026-05-08 01:17 51.68761 2.65574 30558 ft 381 kts 261°
2026-05-08 01:18 51.68383 2.61353 30095 ft 379 kts 261°
2026-05-08 01:18 51.68008 2.57166 29556 ft 376 kts 261°
2026-05-08 01:18 51.67638 2.53064 29067 ft 374 kts 261°
2026-05-08 01:18 51.67264 2.48929 28573 ft 371 kts 261°
2026-05-08 01:19 51.66889 2.44818 28080 ft 369 kts 261°
2026-05-08 01:19 51.66514 2.40730 27603 ft 368 kts 260°
2026-05-08 01:19 51.66138 2.36640 27106 ft 367 kts 260°
2026-05-08 01:19 51.65764 2.32592 26617 ft 365 kts 260°
2026-05-08 01:20 51.65395 2.28604 26163 ft 364 kts 260°
2026-05-08 01:20 51.65021 2.24574 25696 ft 363 kts 260°
2026-05-08 01:20 51.64647 2.20551 25229 ft 362 kts 260°
2026-05-08 01:20 51.64272 2.16545 24769 ft 362 kts 260°
2026-05-08 01:21 51.63896 2.12545 24319 ft 361 kts 260°
2026-05-08 01:21 51.63522 2.08546 23846 ft 361 kts 260°
2026-05-08 01:21 51.63152 2.04533 23334 ft 361 kts 261°
2026-05-08 01:21 51.62784 2.00543 22818 ft 360 kts 260°
2026-05-08 01:22 51.62438 1.96806 22359 ft 358 kts 260°
2026-05-08 01:22 51.62070 1.92855 21903 ft 357 kts 260°
2026-05-08 01:22 51.61701 1.88919 21436 ft 353 kts 259°
2026-05-08 01:22 51.61073 1.85141 20973 ft 349 kts 247°
2026-05-08 01:23 51.59990 1.81654 20513 ft 348 kts 238°
2026-05-08 01:23 51.58560 1.78540 20064 ft 346 kts 229°
2026-05-08 01:23 51.56958 1.75647 19609 ft 346 kts 228°
2026-05-08 01:23 51.55337 1.72791 19137 ft 346 kts 228°
2026-05-08 01:24 51.53720 1.69915 18687 ft 341 kts 228°
2026-05-08 01:24 51.52201 1.67182 18208 ft 319 kts 228°
2026-05-08 01:24 51.50724 1.64512 17743 ft 320 kts 229°
2026-05-08 01:24 51.49267 1.61824 17287 ft 317 kts 232°
2026-05-08 01:25 51.48220 1.58726 16858 ft 316 kts 249°
2026-05-08 01:25 51.47494 1.55389 16428 ft 317 kts 250°
2026-05-08 01:25 51.46776 1.52090 16001 ft 317 kts 250°
2026-05-08 01:25 51.46030 1.48749 15566 ft 318 kts 249°
2026-05-08 01:26 51.45267 1.45407 15129 ft 319 kts 249°
2026-05-08 01:26 51.44497 1.42066 14686 ft 321 kts 249°
2026-05-08 01:26 51.43668 1.38773 14228 ft 315 kts 240°
2026-05-08 01:26 51.42316 1.36074 14005 ft 307 kts 222°
2026-05-08 01:27 51.40671 1.34006 13812 ft 296 kts 217°
2026-05-08 01:27 51.39028 1.32088 13644 ft 290 kts 217°
2026-05-08 01:27 51.37396 1.30202 13489 ft 289 kts 217°
2026-05-08 01:27 51.35764 1.28311 13335 ft 289 kts 217°
2026-05-08 01:28 51.34138 1.26418 13191 ft 289 kts 217°
2026-05-08 01:28 51.32515 1.24520 13027 ft 289 kts 217°
2026-05-08 01:28 51.31123 1.22889 12899 ft 288 kts 217°
2026-05-08 01:28 51.29504 1.20988 12749 ft 288 kts 217°
2026-05-08 01:29 51.27891 1.19092 12598 ft 288 kts 217°
2026-05-08 01:29 51.26278 1.17196 12468 ft 288 kts 217°
2026-05-08 01:29 51.24662 1.15297 12299 ft 288 kts 217°
2026-05-08 01:29 51.23067 1.13424 12151 ft 288 kts 217°
2026-05-08 01:30 51.21438 1.11512 11988 ft 287 kts 218°
2026-05-08 01:30 51.19849 1.09648 11855 ft 287 kts 218°
2026-05-08 01:30 51.18239 1.07760 11700 ft 287 kts 218°
2026-05-08 01:30 51.16640 1.05888 11551 ft 286 kts 218°
2026-05-08 01:31 51.15026 1.03999 11406 ft 286 kts 218°
2026-05-08 01:31 51.13417 1.02116 11239 ft 286 kts 218°
2026-05-08 01:31 51.11818 1.00248 11114 ft 286 kts 218°
2026-05-08 01:31 51.10333 0.98515 10962 ft 286 kts 218°
2026-05-08 01:32 51.08728 0.96643 10811 ft 285 kts 218°
2026-05-08 01:32 51.07122 0.94773 10663 ft 285 kts 218°
2026-05-08 01:32 51.05684 0.92778 10498 ft 275 kts 235°
2026-05-08 01:32 51.04779 0.90114 10358 ft 269 kts 247°
2026-05-08 01:33 51.03987 0.87396 10206 ft 272 kts 246°
2026-05-08 01:33 51.03195 0.84713 10055 ft 264 kts 246°
2026-05-08 01:33 51.02423 0.82111 9895 ft 258 kts 246°
2026-05-08 01:33 51.01659 0.79536 9756 ft 259 kts 246°
2026-05-08 01:34 51.00891 0.76954 9605 ft 259 kts 246°
2026-05-08 01:34 51.00119 0.74369 9454 ft 259 kts 246°
2026-05-08 01:34 50.99345 0.71788 9309 ft 259 kts 246°
2026-05-08 01:34 50.98579 0.69234 9187 ft 260 kts 246°
2026-05-08 01:35 50.97800 0.66642 9023 ft 260 kts 246°
2026-05-08 01:35 50.97020 0.64053 8902 ft 260 kts 246°
2026-05-08 01:35 50.96240 0.61464 8759 ft 260 kts 246°
2026-05-08 01:35 50.95459 0.58872 8621 ft 260 kts 246°
2026-05-08 01:36 50.94677 0.56280 8489 ft 260 kts 246°
2026-05-08 01:36 50.93894 0.53686 8350 ft 261 kts 246°
2026-05-08 01:36 50.93108 0.51090 8213 ft 261 kts 245°
2026-05-08 01:36 50.92324 0.48503 8094 ft 261 kts 245°
2026-05-08 01:37 50.91580 0.45900 7930 ft 255 kts 253°
2026-05-08 01:37 50.91455 0.43102 7820 ft 259 kts 279°
2026-05-08 01:37 50.91922 0.40339 7697 ft 263 kts 286°
2026-05-08 01:37 50.92451 0.37555 7550 ft 264 kts 286°
2026-05-08 01:38 50.92799 0.35699 7453 ft 265 kts 286°
2026-05-08 01:38 50.93319 0.32899 7315 ft 265 kts 286°
2026-05-08 01:38 50.93993 0.29241 7131 ft 256 kts 286°
2026-05-08 01:38 50.94479 0.26576 7000 ft 247 kts 285°
2026-05-08 01:39 50.94708 0.24794 6972 ft 242 kts 277°
2026-05-08 01:39 50.94856 0.22135 6961 ft 245 kts 274°
2026-05-08 01:39 50.94953 0.19478 6927 ft 243 kts 273°
2026-05-08 01:39 50.95046 0.16813 6886 ft 240 kts 273°
2026-05-08 01:40 50.95143 0.14171 6873 ft 239 kts 273°
2026-05-08 01:40 50.95243 0.11543 6847 ft 239 kts 273°
2026-05-08 01:40 50.95347 0.08915 6836 ft 239 kts 274°
2026-05-08 01:40 50.95451 0.06276 6815 ft 240 kts 274°
2026-05-08 01:41 50.95558 0.03640 6794 ft 240 kts 274°
2026-05-08 01:41 50.95669 0.00995 6773 ft 241 kts 274°
2026-05-08 01:41 50.95773 -0.01458 6760 ft 241 kts 273°
2026-05-08 01:41 50.95884 -0.04111 6726 ft 241 kts 273°
2026-05-08 01:42 50.95996 -0.06780 6632 ft 244 kts 273°
2026-05-08 01:42 50.96107 -0.09438 6604 ft 244 kts 273°
2026-05-08 01:42 50.96220 -0.12159 6572 ft 244 kts 273°
2026-05-08 01:42 50.96330 -0.14809 6528 ft 244 kts 273°
2026-05-08 01:43 50.96440 -0.17486 6506 ft 243 kts 273°
2026-05-08 01:43 50.96551 -0.20164 6473 ft 242 kts 273°
2026-05-08 01:43 50.96660 -0.22828 6442 ft 241 kts 273°
2026-05-08 01:43 50.96768 -0.25484 6415 ft 241 kts 273°
2026-05-08 01:44 50.96875 -0.28130 6375 ft 240 kts 273°
2026-05-08 01:44 50.96982 -0.30775 6353 ft 240 kts 273°
2026-05-08 01:44 50.97088 -0.33413 6323 ft 239 kts 273°
2026-05-08 01:44 50.97192 -0.36030 6295 ft 239 kts 272°
2026-05-08 01:45 50.97296 -0.38654 6252 ft 238 kts 272°
2026-05-08 01:45 50.97399 -0.41284 6233 ft 238 kts 272°
2026-05-08 01:45 50.97503 -0.43925 6204 ft 239 kts 272°
2026-05-08 01:45 50.97605 -0.46554 6174 ft 239 kts 272°
2026-05-08 01:46 50.97708 -0.49175 6143 ft 239 kts 272°
2026-05-08 01:46 50.97810 -0.51817 6122 ft 240 kts 272°
2026-05-08 01:46 50.97911 -0.54464 6082 ft 240 kts 272°
2026-05-08 01:46 50.98010 -0.57079 6057 ft 240 kts 272°
2026-05-08 01:47 50.98118 -0.59726 6026 ft 238 kts 276°
2026-05-08 01:47 50.98696 -0.62135 5979 ft 237 kts 308°
2026-05-08 01:47 51.00001 -0.63680 5842 ft 243 kts 339°
2026-05-08 01:48 51.03262 -0.62899 5345 ft 241 kts 28°
2026-05-08 01:48 51.04742 -0.61662 5077 ft 238 kts 28°
2026-05-08 01:48 51.06178 -0.60427 4801 ft 232 kts 33°
2026-05-08 01:48 51.07486 -0.58934 4694 ft 229 kts 42°
2026-05-08 01:49 51.08557 -0.57221 4376 ft 201 kts 52°
2026-05-08 01:49 51.09265 -0.55539 4154 ft 180 kts 63°
2026-05-08 01:49 51.09853 -0.53624 4054 ft 194 kts 69°
2026-05-08 01:49 51.10281 -0.51613 3739 ft 188 kts 77°
2026-05-08 01:50 51.10567 -0.49651 3558 ft 175 kts 80°
2026-05-08 01:50 51.10806 -0.47948 3377 ft 139 kts 80°
2026-05-08 01:50 51.11002 -0.46555 3241 ft 121 kts 81°
2026-05-08 01:50 51.11185 -0.45271 3140 ft 117 kts 80°
2026-05-08 01:51 51.11384 -0.43943 3098 ft 126 kts 81°
2026-05-08 01:51 51.11578 -0.42599 3008 ft 126 kts 81°
2026-05-08 01:51 51.11769 -0.41232 2844 ft 126 kts 81°
2026-05-08 01:51 51.11958 -0.39877 2654 ft 125 kts 82°
2026-05-08 01:52 51.12137 -0.38566 2511 ft 124 kts 82°
2026-05-08 01:52 51.12319 -0.37246 2355 ft 124 kts 82°
2026-05-08 01:52 51.12501 -0.35918 2188 ft 122 kts 82°
2026-05-08 01:52 51.12682 -0.34595 2024 ft 122 kts 82°
2026-05-08 01:53 51.12862 -0.33283 1855 ft 121 kts 82°
2026-05-08 01:53 51.13042 -0.31978 1693 ft 121 kts 81°
2026-05-08 01:53 51.13221 -0.30675 1532 ft 120 kts 81°
2026-05-08 01:53 51.13405 -0.29373 1360 ft 120 kts 80°
2026-05-08 01:54 51.13577 -0.28073 1143 ft 119 kts 79°
2026-05-08 01:54 51.13757 -0.26782 1005 ft 121 kts 77°
2026-05-08 01:54 51.13936 -0.25479 853 ft 119 kts 78°
2026-05-08 01:54 51.14110 -0.24170 690 ft 123 kts 78°
2026-05-08 01:55 51.14293 -0.22824 539 ft 119 kts 77°
2026-05-08 01:55 51.14454 -0.21614 370 ft 110 kts 76°
2026-05-08 01:55 51.14621 -0.20423 255 ft 106 kts 75°
2026-05-08 01:55 51.14759 -0.19435 215 ft 78 kts 79°
2026-05-08 01:56 51.14854 -0.18750 215 ft 56 kts 78°
2026-05-08 01:56 51.14920 -0.18261 212 ft 35 kts 76°
2026-05-08 01:56 51.14996 -0.17935 216 ft 29 kts 58°
2026-05-08 01:56 51.15081 -0.17771 219 ft 10 kts 25°
2026-05-08 01:57 51.15163 -0.17767 215 ft 21 kts 350°
2026-05-08 01:57 51.15257 -0.17734 220 ft 13 kts 49°
2026-05-08 01:57 51.15285 -0.17562 210 ft 20 kts 78°
2026-05-08 01:57 51.15320 -0.17388 220 ft 6 kts 40°
2026-05-08 01:58 51.15359 -0.17378 217 ft 6 kts
2026-05-08 01:58 51.15400 -0.17388 217 ft 6 kts 349°
2026-05-08 01:58 51.15440 -0.17400 214 ft 6 kts 349°
2026-05-08 01:58 51.15480 -0.17414 212 ft 6 kts 346°
2026-05-08 01:59 51.15520 -0.17428 219 ft 6 kts 348°
2026-05-08 01:59 51.15560 -0.17442 214 ft 6 kts 347°
2026-05-08 01:59 51.15600 -0.17457 217 ft 6 kts 347°
2026-05-08 01:59 51.15651 -0.17476 217 ft 8 kts 349°
2026-05-08 02:00 51.15714 -0.17496 218 ft 10 kts 348°
2026-05-08 02:00 51.15769 -0.17439 213 ft 11 kts 71°
2026-05-08 02:00 51.15787 -0.17323 208 ft 12 kts 75°
2026-05-08 02:00 51.15802 -0.17234 214 ft 6 kts 68°
2026-05-08 02:01 51.15842 -0.17210 217 ft 7 kts 356°
2026-05-08 02:01 51.15886 -0.17224 218 ft 3 kts 348°
2026-05-08 02:01 51.15890 -0.17225 217 ft 0 kts 348°